TITAN 3C TRANSTAGE DEB, 1883

Orbit data source: Space-Track

TITAN 3C TRANSTAGE DEB, 1883 is space debris in LEO originally from a launch on Fri, 15 Oct 1965 UTC launched from the Air Force Eastern Test Range (AFETR). Debris objects in space refer to the collection of defunct objects orbiting the Earth. Examples of debris include non-operational satellites, rocket bodies, and fragments generated from explosions, collisions, or faulty payload assembly.

Loading next visibility...
Identifier
1883, 1965-082EY
Orbit
LEO
Country
Flag of USUS
Related business
Manufacturer
Unknown
Mission
Spacecraft
Bus & Motor
Unknown
Mass
Unknown
Launch date (UTC)
1965-10-15 (60 years ago)
Launch vehicle
Unknown
Launch site
Air Force Eastern Test Range (AFETR)
Object type
Payload
Rocket body
Debris
Shape & HBR
Unknown
Radar Cross Section
Small (<0.1 m²)

Expand to show TLE details & history
Last TLE update: 1 day ago

TLE from 1 day ago
0 TITAN 3C TRANSTAGE DEB
1 01883U 65082EY  25260.45152176  .00005931  00000-0  27063-3 0  9996
2 01883  32.0933   6.6173 0014432 256.2162 103.6893 15.19227387223724
Epoch: 2025-09-17T10:50Z
TLE epoch observation values (Epoch: 2025-09-17T10:50:11.48Z)
Latitude
0.00002°
Longitude
-152.55778°
Altitude
509.151 km
Speed
7.611 km/s
True Right ascension
00h 26m 28s
True Declination
0° 00' 00"
Sunlit
Object was in full shadow at epoch
Visualization orbit readout
Latitude
Unknown
Longitude
Unknown
Altitude
Unknown
Speed
Unknown
Apparent Right ascension
Unknown
Apparent Declination
Unknown
Sunlit
N/A
Visualization observer readout
Local Sidereal Time
06:44:00
Azimuth
Unknown
Elevation
Unknown
Doppler factor
Unknown
Orbital elements
Apogee altitude
521.811 km
Perigee altitude
501.924 km
Semi-major axis
6,890.005 km
Eccentricity
0.00144
Inclination
32.0933°
RAAN
6.6173°
Arg. of periapsis
256.2162°
True anomaly
103.84991°
Mean anomaly
103.6893°
Eccentric anomaly
103.76961°
Mean motion
3.79502 °/min
Orbital period
94.86 mins
BSTAR
0.00027063
Loading maneuver chart data...
Computing Atmospheric mass density...

Documentation

Showing up to 5 results
|